Theta_e
319 318 317 317 318 320 321 321 322 323 324 325 325 326 326 325 325 324 325 327 327 327 326 324 324 323 324 324 324 320 316 318 319 324 329 329 329 328 327 328 327 327 326 324
317 316 316 319 320 319 319 322 322 322 323 323 324 325 326 325 324 324 325 326 326 326 326 325 324 324 324 324 323 319 319 319 323 323 328 328 329 327 327 327 327 327 327 324
315 319 318 317 318 320 320 320 323 323 324 323 323 325 325 326 326 326 326 326 325 326 325 325 324 324 324 324 323 319 322 321 325 325 328 327 327 328 327 327 326 326 324 324
314 317 318 317 316 319 320 322 323 325 325 324 323 325 322 324 324 323 323 325 326 326 325 324 324 324 325 325 322 323 325 326 325 328 325 326 329 328 326 327 326 325 322 322
315 315 316 316 316 319 321 321 322 324 325 322 323 322 321 322 324 324 322 324 326 326 325 324 324 325 325 326 324 325 327 327 325 329 330 329 329 326 326 326 326 326 323 322
314 316 315 315 317 319 321 322 322 323 323 324 324 323 326 323 324 324 322 324 325 324 324 324 325 325 326 325 324 327 327 326 326 330 330 329 328 325 324 324 325 326 325 324
316 315 315 316 316 318 321 321 322 322 324 326 322 323 324 323 323 323 320 324 324 324 324 324 325 326 327 325 324 326 324 327 326 330 329 328 328 325 324 324 325 326 324 325
316 316 316 317 317 316 316 317 323 325 324 324 323 324 324 322 322 324 323 324 325 325 325 325 325 327 327 325 323 323 324 327 327 329 328 329 329 326 326 322 325 326 325 324
315 316 318 317 317 317 317 320 319 322 323 323 323 324 324 323 322 325 325 326 326 326 326 325 326 328 327 324 322 322 326 326 327 328 327 329 328 328 327 324 324 323 323 322
315 317 318 317 317 316 316 318 321 319 323 325 323 324 324 322 323 327 326 325 326 326 326 326 327 328 326 324 322 321 325 326 326 326 328 328 328 329 326 325 324 323 322 322
315 316 319 318 317 316 315 317 321 320 320 324 322 322 320 321 321 327 325 326 327 327 327 327 328 327 326 325 322 323 325 325 325 326 328 328 329 330 326 324 324 324 324 323
315 314 317 318 319 317 316 317 320 323 322 320 321 322 322 321 322 326 325 327 327 327 327 327 328 327 325 325 323 322 326 324 324 325 327 328 329 330 327 326 325 325 325 324
316 316 319 322 318 319 317 319 320 318 319 321 321 321 324 324 326 327 326 326 326 327 328 328 327 326 325 325 323 324 325 324 323 324 328 328 329 327 327 326 325 324 325 324
313 315 317 319 321 320 320 320 322 320 320 321 322 324 326 327 329 327 327 326 327 327 328 328 327 326 325 324 323 324 325 325 322 323 326 328 328 327 328 325 326 325 325 324
310 319 317 318 320 323 323 321 323 323 321 323 322 323 323 324 329 328 328 326 326 327 328 327 327 326 326 324 322 324 325 324 320 323 323 327 326 329 329 325 327 326 326 326
309 317 318 319 319 319 320 324 324 324 322 322 323 324 322 325 329 328 327 326 325 326 327 327 327 326 326 324 322 324 324 325 320 320 320 325 326 328 328 327 327 327 327 327
309 315 319 321 321 320 320 322 324 323 324 323 323 321 321 322 328 328 327 327 326 326 327 327 327 326 326 323 322 323 323 324 320 319 318 322 327 328 326 328 327 327 326 327
310 312 314 319 320 325 323 322 324 324 323 322 321 321 321 324 325 330 329 327 326 326 326 326 326 326 326 324 322 322 323 324 320 318 318 320 328 327 325 324 326 328 326 324
309 311 316 318 321 323 327 325 324 323 323 321 322 320 321 324 326 328 329 330 329 327 326 326 326 326 326 325 322 322 323 324 320 318 318 318 327 328 327 324 323 325 326 325
312 312 320 323 320 324 325 325 324 322 325 321 321 320 320 328 329 327 328 329 329 328 327 326 326 326 326 325 322 322 323 324 321 319 318 318 323 329 329 326 324 324 324 325
321 322 320 322 320 327 323 324 325 325 324 322 323 323 322 324 327 329 330 329 329 329 328 327 326 327 326 326 322 322 323 323 323 320 318 319 317 322 329 328 327 326 325 325
317 319 321 320 324 330 319 323 326 320 323 324 323 325 324 325 327 329 331 330 330 329 327 327 327 327 327 327 323 322 323 322 323 321 319 319 319 321 323 327 327 327 326 325
316 316 316 317 323 314 318 317 314 313 316 324 324 325 327 327 327 328 329 330 331 331 330 329 328 327 327 327 325 323 323 322 324 322 320 321 318 319 323 323 326 326 326 322
311 311 314 313 318 313 313 313 312 313 312 316 322 324 325 326 327 327 327 329 331 331 330 329 328 328 328 327 326 326 323 323 323 323 320 321 319 318 321 322 324 324 324 321
310 311 311 312 314 312 315 312 312 313 312 313 318 322 324 325 327 327 327 328 330 331 330 330 329 329 328 328 327 326 325 323 324 324 321 321 321 317 318 319 320 321 322 321
312 311 312 312 311 311 311 311 311 312 311 312 313 320 323 326 324 326 328 329 330 330 331 330 330 330 329 329 328 327 326 324 323 324 321 321 322 319 318 318 319 321 321 321
Wind_Speed
25 11 16 26 23 14 8 6 9 20 24 5 12 15 23 18 18 20 28 32 33 24 26 32 37 34 29 22 15 13 8 5 5 3 6 10 15 15 14 9 10 10 8 8
8 24 23 16 15 12 12 14 18 21 23 7 17 18 21 9 7 21 30 34 33 19 22 29 37 34 28 20 15 12 8 5 4 2 6 11 14 12 14 8 7 9 10 6
22 8 18 16 14 13 16 17 17 18 20 16 10 15 9 5 6 14 23 27 20 23 31 37 36 32 26 18 15 12 8 5 2 4 5 9 8 11 12 7 6 8 6 3
18 21 16 22 18 17 19 16 19 15 12 8 6 7 5 6 6 5 14 15 19 28 34 38 37 32 25 17 14 11 9 5 6 3 3 7 10 13 12 5 6 2 1 6
16 20 25 21 24 21 18 18 18 20 14 9 22 4 8 6 6 9 10 11 19 31 35 41 37 31 20 16 16 12 9 5 6 5 4 8 11 9 7 3 3 2 3 5
26 9 20 23 18 22 23 10 12 12 8 11 15 7 15 5 8 5 2 17 31 34 36 36 33 25 20 16 15 13 10 5 3 5 3 8 7 8 7 4 3 4 5 8
14 24 17 15 21 19 13 10 4 3 3 11 9 6 10 6 8 8 9 20 26 31 33 34 32 27 21 20 17 14 9 7 5 6 5 6 6 7 7 6 5 4 5 10
17 12 26 20 20 18 19 14 8 7 6 4 6 5 10 9 6 13 19 26 28 30 31 31 31 25 21 20 17 12 8 7 10 9 4 2 6 4 6 8 10 2 5 12
16 15 9 21 18 19 14 15 21 4 3 2 4 7 9 7 6 6 16 25 30 32 32 33 29 24 21 19 16 11 10 9 11 9 4 2 6 6 6 8 9 5 9 11
5 4 15 16 15 24 25 6 7 2 10 6 4 4 5 1 7 6 8 16 28 30 32 31 29 25 19 17 14 12 10 11 10 5 5 4 3 7 6 6 7 8 8 9
9 3 5 15 21 27 10 10 6 5 6 8 3 7 8 13 11 16 13 26 33 35 35 33 30 24 18 18 16 15 12 13 11 6 7 4 0 4 5 6 6 6 7 9
24 5 11 21 4 16 15 15 10 8 5 2 6 9 4 11 15 17 16 28 34 36 36 32 29 25 22 22 18 17 15 12 10 9 9 6 3 2 4 7 5 4 7 11
10 15 6 7 2 7 15 14 8 5 5 8 7 7 3 5 12 19 22 25 33 35 36 33 31 27 25 24 18 14 17 14 12 9 12 8 4 3 5 7 6 7 9 12
12 6 26 14 12 5 6 18 13 8 5 6 8 5 4 2 14 9 19 31 37 39 38 38 33 29 27 23 17 14 18 16 13 11 13 10 4 8 8 8 9 11 13 14
10 12 20 29 16 3 6 17 17 16 12 11 7 10 8 10 16 19 30 30 31 36 40 39 36 31 27 24 19 17 18 18 15 14 12 11 11 13 8 13 13 16 18 15
9 6 11 22 28 26 16 13 22 15 8 8 12 8 8 18 17 16 25 29 31 36 40 40 36 32 29 27 23 20 19 19 18 16 11 15 15 11 10 12 12 16 17 13
5 5 6 20 16 18 17 19 17 17 14 12 10 7 8 7 15 20 25 34 36 39 41 41 38 35 29 28 24 23 20 21 21 16 13 18 16 15 15 11 10 12 12 10
9 4 3 6 8 8 7 11 15 22 17 10 5 10 12 13 28 35 44 41 39 40 42 41 39 36 29 27 26 22 22 24 23 18 15 19 19 18 15 15 12 11 8 6
17 7 5 4 10 4 3 5 10 8 6 9 16 11 11 17 19 14 41 45 41 39 41 41 38 36 31 29 27 26 27 26 25 22 18 18 23 22 19 15 14 11 12 4
14 15 3 4 7 6 2 8 10 8 12 10 12 12 10 14 7 5 39 45 42 39 39 42 40 38 33 31 31 30 30 30 29 23 19 17 25 23 21 19 15 15 13 7
6 3 11 5 4 3 15 22 1 11 5 18 20 19 14 9 13 26 47 47 44 42 40 40 41 40 36 34 35 33 32 32 27 21 20 21 18 23 23 21 18 15 15 12
4 5 3 4 1 4 28 8 8 9 24 28 16 32 32 35 27 33 48 49 46 46 43 42 42 41 39 36 37 36 35 30 26 21 23 25 21 23 20 21 19 15 14 18
3 4 4 4 1 6 10 9 11 19 20 30 31 16 33 29 30 32 37 48 48 46 47 44 43 43 42 40 38 37 33 31 28 26 25 27 25 24 25 22 21 18 14 21
3 7 3 8 2 16 15 18 26 30 31 33 39 25 20 34 32 27 25 31 46 46 48 46 44 43 43 43 40 32 32 31 31 28 27 26 29 28 25 23 21 20 19 16
2 4 6 6 9 22 2 27 33 41 39 45 45 38 15 10 28 27 26 33 42 49 49 46 43 43 44 41 41 37 33 34 35 31 30 29 32 29 28 25 23 21 18 17
6 3 2 4 16 10 20 28 35 39 43 43 43 43 28 19 16 28 31 34 44 49 47 45 42 43 42 41 40 37 35 37 35 36 34 33 36 32 30 28 26 23 16 14
Wind_Direction
201 209 213 217 217 228 242 236 246 262 268 277 267 269 271 257 241 219 222 235 245 248 236 213 204 204 204 207 210 203 204 185 177 212 285 306 314 327 331 305 293 289 297 268
207 221 218 223 224 217 229 241 249 272 270 261 274 281 287 252 225 220 220 234 244 226 205 197 193 200 208 204 198 196 190 172 155 269 273 305 314 329 335 307 307 306 294 254
211 227 204 210 222 226 227 229 243 243 276 279 276 279 265 292 226 231 241 247 247 209 184 183 192 200 199 195 195 192 180 164 159 208 292 317 323 335 337 318 305 316 294 243
233 221 202 211 221 214 234 226 241 251 255 257 140 281 277 237 259 246 271 284 243 194 190 189 193 195 189 191 186 177 179 168 207 222 304 333 333 336 334 320 318 340 356 159
211 196 217 224 215 216 228 223 233 244 247 259 280 295 267 270 268 266 287 262 202 188 192 192 194 190 184 186 180 177 178 204 226 243 331 341 334 346 348 348 0 30 145 160
218 201 209 219 221 220 231 238 238 255 242 253 243 216 268 221 226 252 228 197 184 187 187 189 188 183 179 178 174 178 185 206 230 189 265 320 332 5 6 355 325 351 187 177
214 223 237 203 216 229 212 202 248 284 198 241 210 184 239 228 230 223 193 203 191 188 185 186 180 178 177 177 177 181 199 196 219 198 234 317 334 11 15 7 348 3 154 170
211 228 212 218 212 213 221 211 204 185 222 239 203 228 260 226 253 230 196 193 184 181 186 181 179 177 178 177 181 185 177 195 182 190 261 321 359 356 15 24 7 17 146 167
195 227 244 206 211 206 222 213 224 203 315 137 214 282 320 267 151 136 137 160 172 182 183 179 178 180 176 178 184 184 176 189 181 192 267 83 18 25 20 18 23 78 132 150
231 222 226 203 196 230 219 142 231 303 203 212 265 247 231 151 149 148 155 155 169 178 177 176 179 179 178 181 181 185 186 187 187 192 171 105 51 30 32 25 45 93 123 153
216 134 302 208 203 209 199 201 201 175 166 192 211 260 199 203 177 172 173 167 174 178 177 178 179 178 180 181 179 179 188 186 183 185 174 147 155 21 52 45 71 102 96 141
210 179 238 241 298 200 209 205 180 213 233 167 158 257 244 218 171 165 169 174 180 179 177 179 178 179 182 184 181 182 178 187 191 186 170 157 166 33 61 53 63 116 103 126
232 217 259 324 252 240 202 201 178 143 121 187 168 256 4 127 149 169 161 176 177 178 177 178 178 184 186 187 186 184 188 191 185 174 170 155 176 90 82 62 60 132 130 129
324 212 207 220 221 164 198 198 188 145 142 164 196 206 200 219 152 168 170 174 178 179 179 178 182 188 189 190 189 182 182 189 182 186 174 173 166 119 97 75 86 132 134 128
5 218 205 222 234 236 217 212 189 188 180 173 201 189 215 194 174 180 175 172 167 174 181 184 186 190 193 193 189 182 182 187 187 187 178 170 150 125 109 95 90 117 126 123
338 299 204 221 224 236 247 232 194 190 175 142 178 208 201 190 177 150 172 167 173 180 185 189 191 192 194 195 189 183 180 190 191 189 179 164 156 163 149 114 93 127 130 125
276 335 338 222 218 231 234 234 207 181 174 150 182 202 165 144 174 176 175 177 182 185 189 193 196 195 193 195 190 186 184 189 191 190 181 171 167 161 149 149 135 121 117 109
241 321 282 227 207 209 231 198 197 197 179 179 150 175 167 186 189 191 188 183 187 190 192 198 198 197 195 193 192 186 186 192 190 190 187 175 171 168 162 166 175 166 137 103
207 203 274 199 198 250 233 229 175 154 235 177 181 196 190 178 165 185 190 193 192 197 199 200 201 199 192 192 190 187 189 195 193 190 189 178 175 174 178 173 172 174 163 142
174 203 210 328 141 189 186 318 198 141 222 190 171 186 186 138 149 221 195 198 197 199 201 202 203 201 194 192 190 187 191 195 196 193 191 184 184 183 186 190 185 175 177 177
310 151 222 235 264 71 347 324 145 159 284 320 188 191 171 178 185 196 192 198 201 200 202 205 204 203 198 193 191 192 193 197 201 196 193 192 181 186 192 189 193 202 199 186
312 309 5 323 196 64 348 349 54 310 315 357 237 192 193 200 192 187 193 198 202 203 204 205 205 205 200 195 193 194 197 198 198 193 195 199 190 184 190 195 199 200 207 196
208 8 315 30 293 352 338 57 5 346 346 4 349 311 192 181 177 176 193 198 198 202 203 204 207 205 204 197 197 199 200 195 195 194 193 200 196 193 196 195 200 206 212 204
339 9 300 339 217 338 305 357 351 360 359 358 1 359 213 184 176 180 181 189 200 198 201 201 203 205 203 201 201 204 198 194 195 197 197 200 197 197 201 205 208 213 216 212
232 300 331 283 287 332 137 353 349 351 356 5 1 2 4 205 174 179 187 186 190 193 198 197 201 207 206 202 204 203 199 194 195 199 200 203 201 199 200 209 212 218 230 232
172 177 70 283 291 262 285 321 339 346 356 358 353 347 6 0 207 179 185 188 188 193 194 195 203 209 208 204 206 204 201 199 196 198 201 205 203 203 204 207 212 218 226 229